Weather History for Hawthorne, CA

Change the Weather History Date:

Saturday, June 7, 2014

  Actual Average Record
Temperature  
Mean Temperature 66 °F -  
Max Temperature 71 °F 69 °F 77 °F (1954)
Min Temperature 60 °F 59 °F 49 °F (1950)
Growing Degree Days 16 (Base 50)    
Moisture  
Dew Point 53 °F    
Average Humidity 66    
Maximum Humidity 78    
Minimum Humidity 53    
Precipitation  
Precipitation 0.00 in - - ()
Sea Level Pressure  
Sea Level Pressure 29.82 in    
Wind  
Wind Speed 5 mph (West)    
Max Wind Speed 13 mph    
Max Gust Speed 17 mph    
Visibility 10 miles    
Events      
Averages and records for this station are not official NWS values.
T = Trace of Precipitation, MM = Missing Value Source: NWS Daily Summary

Daily Weather History Graph

Daily Weather History Graph

Search for Another Location

Airport:

Trip Planner

Search our weather history database for the weather conditions in past years. The results will help you decide how hot, cold, wet, or windy it might be!

Date:

Astronomy

Jun. 07, 2014 Rise Set
Actual Time 5:42 AM PDT 8:02 PM PDT
Civil Twilight 5:13 AM PDT 8:31 PM PDT
Nautical Twilight 4:37 AM PDT 9:07 PM PDT
Astronomical Twilight 3:58 AM PDT 9:45 PM PDT
Moon 2:38 PM PDT (6/7) 1:50 AM PDT (6/7)
Length of Visible Light 15h 18m
Length of Day
14h 20m
Waxing Gibbous, 69% of the Moon is Illuminated
Jun 7
Waxing Gibbous
Jun 12
Full
Jun 19
Last Quarter
Jun 27
New
Jul 5
First Quarter

Hourly Weather History & Observations

Time (PDT) Temp. Dew Point Humidity Pressure Visibility Wind Dir Wind Speed Gust Speed Precip Events Conditions
12:53 AM 62.1 °F 52.0 °F 70% 29.85 in 10.0 mi WNW 3.5 mph - N/A   Overcast
1:36 AM 60.8 °F 51.8 °F 72% 29.85 in 10.0 mi Variable 3.5 mph - N/A   Overcast
1:53 AM 62.1 °F 53.1 °F 72% 29.84 in 10.0 mi WNW 3.5 mph - N/A   Overcast
2:53 AM 62.1 °F 52.0 °F 70% 29.83 in 10.0 mi Calm Calm - N/A   Overcast
3:53 AM 62.1 °F 53.1 °F 72% 29.82 in 10.0 mi Calm Calm - N/A   Overcast
5:53 AM 62.1 °F 52.0 °F 70% 29.83 in 10.0 mi WNW 3.5 mph - N/A   Overcast
6:53 AM 63.0 °F 53.1 °F 70% 29.84 in 9.0 mi Calm Calm - N/A   Overcast
8:53 AM 64.9 °F 53.1 °F 65% 29.86 in 9.0 mi Calm Calm - N/A   Overcast
9:53 AM 64.0 °F 53.1 °F 67% 29.85 in 9.0 mi Calm Calm - N/A   Overcast
10:53 AM 64.9 °F 53.1 °F 65% 29.85 in 9.0 mi SW 5.8 mph - N/A   Overcast
11:53 AM 66.9 °F 53.1 °F 61% 29.85 in 10.0 mi Variable 4.6 mph - N/A   Overcast
12:53 PM 69.1 °F 53.1 °F 57% 29.83 in 10.0 mi SW 8.1 mph - N/A   Mostly Cloudy
1:13 PM 69.8 °F 53.6 °F 56% 29.83 in 10.0 mi WNW 5.8 mph - N/A   Scattered Clouds
1:53 PM 71.1 °F 53.1 °F 53% 29.82 in 10.0 mi WSW 9.2 mph - N/A   Clear
2:19 PM 69.8 °F 53.6 °F 56% 29.81 in 2.5 mi West 11.5 mph - N/A   Haze
2:27 PM 69.8 °F 53.6 °F 56% 29.81 in 10.0 mi WSW 10.4 mph 17.3 mph N/A   Clear
2:53 PM 70.0 °F 53.1 °F 55% 29.81 in 10.0 mi West 12.7 mph - N/A   Clear
3:53 PM 69.1 °F 54.0 °F 58% 29.80 in 10.0 mi West 10.4 mph 16.1 mph N/A   Clear
4:53 PM 68.0 °F 53.1 °F 59% 29.78 in 10.0 mi West 11.5 mph 16.1 mph N/A   Clear
5:53 PM 66.9 °F 54.0 °F 63% 29.78 in 10.0 mi West 8.1 mph - N/A   Clear
6:53 PM 64.9 °F 54.0 °F 68% 29.78 in 10.0 mi West 10.4 mph - N/A   Partly Cloudy
7:53 PM 64.0 °F 54.0 °F 70% 29.79 in 10.0 mi West 6.9 mph - N/A   Clear
8:53 PM 63.0 °F 54.0 °F 72% 29.81 in 10.0 mi WSW 8.1 mph - N/A   Clear
9:53 PM 62.1 °F 54.0 °F 75% 29.82 in 10.0 mi WSW 5.8 mph - N/A   Clear
10:51 PM 62.6 °F 53.6 °F 72% 29.83 in 10.0 mi WSW 4.6 mph - N/A   Mostly Cloudy
10:53 PM 62.1 °F 54.0 °F 75% 29.83 in 10.0 mi West 4.6 mph - N/A   Mostly Cloudy
11:53 PM 62.1 °F 55.0 °F 78% 29.83 in 10.0 mi WNW 4.6 mph - N/A   Overcast